CZ-4 DEB, 26441

Orbit data source: Space-Track

CZ-4 DEB, 26441 is space debris in SSO originally from a launch on Thu, 14 Oct 1999 UTC launched from the Taiyaun Space Center, China (TSC). Debris objects in space refer to the collection of defunct objects orbiting the Earth. Examples of debris include non-operational satellites, rocket bodies, and fragments generated from explosions, collisions, or faulty payload assembly.

Not visible in the next 10 days
Identifier
26441, 1999-057KN
Orbit
SSO
Country
Flag of CNCN / PRC
Related business
Manufacturer
Unknown
Mission
Spacecraft
Bus & Motor
Unknown
Mass
Unknown
Launch date (UTC)
1999-10-14 (26 years ago)
Launch vehicle
Unknown
Launch site
Taiyaun Space Center, China (TSC)
Object type
Payload
Rocket body
Debris
Shape & HBR
Unknown shape, 0.1 m
Radar Cross Section
Small (<0.1 m²)

Expand to show TLE details & history
Last TLE update: 23 hours ago

TLE from 23 hours ago
0 CZ-4 DEB
1 26441U 99057KN  25349.75553719  .01443105  10234-2  42830-2 0  9991
2 26441  98.0991  81.0036 0013749 299.5477  60.4424 15.92554431363843
Epoch: 2025-12-15T18:07Z
TLE epoch observation values (Epoch: 2025-12-15T18:07:58.413Z)
Latitude
Longitude
84.36067°
Altitude
293.786 km
Speed
7.734 km/s
True Right ascension
05h 24m 00s
True Declination
0° 00' 00"
Sunlit
Object was in full shadow at epoch
Visualization orbit readout
Latitude
Unknown
Longitude
Unknown
Altitude
Unknown
Speed
Unknown
Apparent Right ascension
Unknown
Apparent Declination
Unknown
Sunlit
N/A
Visualization observer readout
Local Sidereal Time
15:47:45
Azimuth
Unknown
Elevation
Unknown
Doppler factor
Unknown
Orbital elements
Apogee altitude
301.21 km
Perigee altitude
282.868 km
Semi-major axis
6,670.176 km
Eccentricity
0.00137
Inclination
98.0991°
RAAN
81.0036°
Arg. of periapsis
299.5477°
True anomaly
60.57956°
Mean anomaly
60.4424°
Eccentric anomaly
60.51097°
Mean motion
3.98416 °/min
Orbital period
90.36 mins
BSTAR
0.004283
Loading maneuver chart data...
Computing Atmospheric mass density...

Documentation

Showing up to 5 results
|